Simultaneous Nadir Overpasses (SNOs) Predictions

Prediction of SNOs between GOES-17 and AQUA Satellite Orbit:

Table of predicted SNOs for the next 14.0 days since TLE Epoch: 8/15/2025
Index Date Time (GOES-17) GOES-17 Lat,Lon AQUA Lat,Lon Distance(km) Time Diff (sec)
1 08/16/2025 20:40:10 0.17, -89.51 0.66, -87.31 251.76 80
2 08/17/2025 08:59:16 -0.17, -89.48 0.36, -91.91 277.52 80
3 08/19/2025 08:36:06 -0.18, -89.48 -0.71, -86.89 293.47 80
4 08/19/2025 20:55:21 0.18, -89.51 -0.29, -91.54 231.68 80
5 08/21/2025 20:37:31 0.19, -89.52 0.82, -86.53 340.60 80
6 08/22/2025 08:56:37 -0.19, -89.49 0.19, -91.14 187.85 80
7 08/24/2025 08:33:27 -0.19, -89.51 -0.95, -86.13 385.59 80
8 08/24/2025 20:52:40 0.19, -89.55 -0.10, -90.77 139.15 80
9 08/26/2025 20:34:49 0.19, -89.57 1.01, -85.75 435.45 80
10 08/27/2025 08:53:55 -0.19, -89.55 -0.02, -90.36 92.21 80
11 08/29/2025 08:30:43 -0.19, -89.57 -1.10, -85.33 482.52 80
